Location: Unspecified
(0.0000°N, 0.0000°E)
Time: 21:57:26
(UTC+00:00)

ITAMSAT 1 - Visible Passes

Search period start: 21 January 2022 00:00
Search period end: 31 January 2022 00:00
Orbit: 783 x 797 km, 98.9° (Epoch: 21 January)

Date Brightness Start Highest point End Pass type
(mag) Time Alt. Az. Time Alt. Az. Time Alt. Az.
21 Jan 7.6 18:56:28 10° SSE 19:01:38 65° ENE 19:06:46 10° N visible
22 Jan 10.4 20:07:55 10° SW 20:11:22 18° WSW 20:14:48 10° WNW visible
23 Jan 9.0 19:37:05 10° S 19:41:58 40° WSW 19:46:48 10° NW visible
24 Jan 7.6 19:07:18 10° SSE 19:12:32 87° ENE 19:17:43 10° NNW visible
25 Jan 8.1 18:38:19 10° SE 18:43:07 37° ENE 18:47:51 10° N visible
25 Jan 10.7 20:19:53 10° SW 20:22:15 13° WSW 20:24:36 10° WNW visible
26 Jan 9.5 19:48:20 10° SSW 19:52:51 30° WSW 19:57:21 10° NW visible
27 Jan 7.9 19:18:14 10° S 19:23:26 70° WSW 19:28:34 10° NNW visible
28 Jan 7.8 18:48:58 10° SSE 18:54:00 50° ENE 18:58:59 10° N visible
29 Jan 10.0 19:59:44 10° SSW 20:03:44 23° WSW 20:07:44 10° NW visible
30 Jan 8.5 19:29:17 10° S 19:34:19 52° WSW 19:39:20 10° NNW visible
